Location: *
(48.8489°N, 2.3218°E)
Time: 05:50:35
(UTC+00:00)

NOSS 3-1 (A) - Pass Details

Date: 23 August 2019
Orbit: 774 x 1439 km, 63.4° (Epoch: 03 September)

Event Time Altitude Azimuth Distance (km) Brightness Sun altitude
Rises 22:29:26 0° 316° (NW) 3,974 7.8 -27.1°
Reaches altitude 10° 22:32:02 10° 312° (NW) 3,102 6.9 -27.2°
Maximum altitude 22:39:20 53° 239° (WSW) 1,566 4.4 -27.7°
Enters shadow 22:40:59 47° 204° (SSW) 1,708 4.4 -27.8°
